Location: Newark
(53.7833°N, 9.4833°E)
Time: 16:24:43
(UTC+00:00)

Envisat - Pass Details

Date: 12 December 2019
Orbit: 764 x 766 km, 98.1° (Epoch: 28 January)

Event Time Altitude Azimuth Distance (km) Brightness Sun altitude
Rises 05:03:01 0° 24° (NNE) 3,248 6.4 -20.2°
Reaches altitude 10° 05:05:56 10° 40° (NE) 2,316 5.8 -19.8°
Maximum altitude 05:09:42 21° 88° (E) 1,695 5.7 -19.3°
Drops below altitude 10° 05:13:28 10° 137° (SE) 2,302 6.3 -18.7°
Sets 05:16:20 0° 153° (SSE) 3,223 6.9 -18.3°
